World > North America > United States > Massachusetts

Spencer, Massachusetts Regional Weather

Lat: 42.24N, Lon: 71.99W
Wx Zone: MAZ004Web Search

Helpful Tip: Abbreviated, 7 Day, 14 Day Forecasts. There is a weather forecast for every taste.

Feedback


°F Click to change Spencer hourly weather to Imperial units.Click to change Spencer hourly weather to Metric units. °C
Spencer Weather Map
UTC Time: 5/15/2021, 11:11
Your Time:

Spencer, MA Regional Weather

Expires:202105151200;;147826
ASUS41 KOKX 151105
RWROKX

Regional Weather Roundup
National Weather Service New York NY
700 AM EDT SAT MAY 15 2021

Note: "FAIR" indicates few or no clouds below 12,000 feet with no
significant weather and/or obstructions to visibility.


CTZ002-004>006-009-010-012-RIZ004-006-007-MAZ004-011-015-151200-
Southern New England

 In CT
  
CITY           SKY/WX    TMP DP  RH WIND       PRES   REMARKS
Bradley Intl   PTSUNNY   54  42  64 CALM      30.22R                  
Hartford       MOSUNNY   50  45  83 CALM      30.23R                  
Danbury        SUNNY     48  40  73 CALM      30.25R                  
Wtrbury/Oxford SUNNY     51  39  63 NW3       30.24R                  
Norwalk Harbor   N/A     50 N/A N/A W3          N/A                   
Bridgeport     MOSUNNY   55  42  61 NW3       30.23R                  
Meriden        MOSUNNY   48  43  82 CALM      30.23R                  
New Haven      SUNNY     53  46  77 CALM      30.22R                  
Chester        FAIR      57  34  41 CALM      30.22R                  
Groton         SUNNY     52  45  77 CALM      30.21R                  
Willimantic    NOT AVBL                                               

 In RI
  
CITY           SKY/WX    TMP DP  RH WIND       PRES   REMARKS
Providence     MOSUNNY   57  40  52 W3        30.20R                  
Block Island   SUNNY     55  43  63 W12       30.22R                  
Westerly       SUNNY     50  43  77 CALM      30.21R                  
 
In MA
  
CITY           SKY/WX    TMP DP  RH WIND       PRES   REMARKS
Boston         PTSUNNY   64  39  39 NW5       30.19R                  
Worcester      PTSUNNY   58  34  40 NW9       30.21R                  
Westfield      PTSUNNY   51  45  79 CALM      30.23R                  
Provincetown   MOSUNNY   56  46  69 NW6       30.20R                  
Nantucket      MOSUNNY   59  46  62 W9        30.19R                  
$$


SKY/WX - Weather  TMP - Temperature  DP - Dew Point  RH - Relative Humidity
WIND - Wind Direction/Speed PRES - Barometric Pressure VSB - Visibility
WCI - Wind Chill Index E13G22 Wind - East Wind 13 mph/Gusts of 22 mph